Regional Weather Roundup
Issued by NWS State College, PA

Home | Current Version | Previous Version | Text Only | Print | Product List | Glossary On
Versions: 1 2 3 4 5 6 7 8 9 10 11 12 13 14 15 16 17 18 19 20 21 22 23 24 25 26 27 28 29 30 31 32 33 34 35 36 37 38 39 40 41 42 43 44 45 46 47 48 49 50
000
ASUS41 KCTP 271510
RWRCTP

REGIONAL WEATHER ROUNDUP
NATIONAL WEATHER SERVICE STATE COLLEGE PA
1100 AM EDT SUN MAY 27 2018

Note: "fair" indicates few or no clouds below 12,000 feet with no
significant weather and/or obstructions to visibility.

* = STATION THAT DOES NOT REPORT PRECIPITATION /E.G. RAIN...SNOW...ETC/
    THUNDER OR FOG.

PAZ002>004-007>009-013>016-020>023-029>032-271600-
WESTERN PENNSYLVANIA

CITY           SKY/WX    TMP DP  RH WIND       PRES   REMARKS
ERIE           PTSUNNY   74  67  78 NW7       29.93S
MEADVILLE      FAIR      72  66  81 VRB5      29.96S
FRANKLIN*      CLOUDY    69  64  84 CALM      29.98F
NEW CASTLE     CLOUDY    73  70  90 CALM      29.97S
BEAVER COUNTY  NOT AVBL
BUTLER*        CLOUDY    70  67  90 SW3       29.98R
PITTSBURGH INT CLOUDY    73  68  84 NW5       29.96S
PITTSBURGH     CLOUDY    72  69  90 NW3       29.96S
INDIANA*       CLOUDY    72  68  88 SW5       30.01F
LATROBE        CLOUDY    70  70 100 CALM      29.98S
WASHINGTON CO* CLOUDY    74  68  81 W6        29.99
$$

PAZ004>006-010>012-017>019-024>028-033>037-041-042-045-046-049>053-271600-
CENTRAL PENNSYLVANIA

CITY           SKY/WX    TMP DP  RH WIND       PRES   REMARKS
BRADFORD       FAIR      70  62  76 S6        30.00S
DUBOIS         CLOUDY    71  65  81 CALM      29.99S
CLEARFIELD     CLOUDY    69  65  86 CALM      30.00F
JOHNSTOWN      LGT RAIN  68  65  90 SW3       30.01S
ALTOONA        CLOUDY    72  67  84 E6        30.00S HAZE
STATE COLLEGE  CLOUDY    66  64  94 CALM      30.00S FOG
WILLIAMSPORT   CLOUDY    70  66  87 E9        29.97S
SELINSGROVE    CLOUDY    70  66  87 NW3       29.98S
FT INDIANTOWN  CLOUDY    73  66  80 E9G17     29.98R
CAPITAL CITY   CLOUDY    79  67  66 NE10      29.95R
HARRISBURG     CLOUDY    78  68  71 E7        29.94S
YORK           PTSUNNY   78  70  76 NE6       29.95R
$$

PAZ038>040-043-044-047-048-054-055-060>062-067>071-271600-
EASTERN PENNSYLVANIA

CITY           SKY/WX    TMP DP  RH WIND       PRES   REMARKS
SCRANTON       CLOUDY    68  64  87 VRB6      30.00S
MOUNT POCONO   LGT RAIN  61  61 100 VRB7      30.05R
ALLENTOWN      LGT RAIN  68  62  81 E10       30.00S
QUAKERTOWN*    CLOUDY    64  66 100 N7        30.01R
READING        CLOUDY    71  66  84 E7        29.97R
LANCASTER      PTSUNNY   75  68  78 E13       29.96R
COATESVILLE    PTSUNNY   70  66  88 E18G26    29.98S
POTTSTOWN      CLOUDY    65  65 100 NE7       30.00R
BLUE BELL      CLOUDY    63  63 100 NE7       30.00R
DOYLESTOWN     CLOUDY    66  65  96 VRB7      29.99S
WILLOW GROVE   NOT AVBL
NORTH PHILA    LGT RAIN  67  64  90 NE10      29.99R FOG
PHILADELPHIA   PTSUNNY   69  66  90 E15       29.96S
$$



USA.gov is the U.S. government's official web portal to all federal, state and local government web resources and services.